TimeMDT,TemperatureF,Dew PointF,Humidity,Sea Level PressureIn,VisibilityMPH,Wind Direction,Wind SpeedMPH,Gust SpeedMPH,PrecipitationIn,Events,Conditions,WindDirDegrees,DateUTC
12:15 AM,57.2,37.4,48,29.97,10.0,NE,8.1,-,N/A,,Overcast,50,2013-04-29 06:15:00
12:35 AM,57.2,37.4,48,29.98,10.0,ENE,6.9,-,N/A,,Overcast,70,2013-04-29 06:35:00
12:55 AM,57.2,37.4,48,29.98,10.0,ENE,5.8,-,N/A,,Overcast,70,2013-04-29 06:55:00
1:14 AM,57.2,35.6,44,29.98,10.0,East,11.5,18.4,N/A,,Overcast,100,2013-04-29 07:14:00
1:35 AM,57.2,35.6,44,29.99,10.0,NE,12.7,26.5,N/A,,Overcast,40,2013-04-29 07:35:00
1:54 AM,55.4,37.4,51,29.99,10.0,North,13.8,21.9,N/A,,Overcast,10,2013-04-29 07:54:00
2:15 AM,53.6,37.4,54,29.99,10.0,NNE,6.9,-,N/A,,Scattered Clouds,30,2013-04-29 08:15:00
2:35 AM,53.6,37.4,54,29.97,10.0,SE,10.4,-,N/A,,Clear,130,2013-04-29 08:35:00
2:55 AM,51.8,37.4,58,29.96,10.0,SE,13.8,-,N/A,,Scattered Clouds,130,2013-04-29 08:55:00
3:15 AM,51.8,37.4,58,29.96,10.0,SE,12.7,-,N/A,,Scattered Clouds,140,2013-04-29 09:15:00
3:35 AM,50.0,37.4,62,29.94,10.0,SE,13.8,-,N/A,,Scattered Clouds,140,2013-04-29 09:35:00
3:55 AM,50.0,35.6,58,29.94,10.0,SE,10.4,-,N/A,,Clear,140,2013-04-29 09:55:00
4:15 AM,46.4,35.6,66,29.93,10.0,SSE,9.2,-,N/A,,Clear,160,2013-04-29 10:15:00
4:35 AM,46.4,35.6,66,29.92,10.0,SSE,12.7,-,N/A,,Clear,160,2013-04-29 10:35:00
4:55 AM,48.2,35.6,62,29.91,10.0,SE,11.5,-,N/A,,Clear,140,2013-04-29 10:55:00
5:15 AM,46.4,35.6,66,29.91,10.0,SSE,9.2,-,N/A,,Clear,150,2013-04-29 11:15:00
5:34 AM,44.6,35.6,71,29.91,10.0,South,4.6,-,N/A,,Clear,180,2013-04-29 11:34:00
5:55 AM,42.8,35.6,76,29.90,10.0,South,6.9,-,N/A,,Clear,180,2013-04-29 11:55:00
6:15 AM,46.4,35.6,66,29.89,10.0,South,9.2,-,N/A,,Clear,170,2013-04-29 12:15:00
6:35 AM,46.4,35.6,66,29.89,10.0,South,10.4,-,N/A,,Clear,180,2013-04-29 12:35:00
6:50 AM,48.2,35.6,62,29.89,10.0,South,10.4,-,N/A,,Clear,180,2013-04-29 12:50:00
7:50 AM,57.2,37.4,48,29.87,50.0,SSE,11.5,-,N/A,,Partly Cloudy,160,2013-04-29 13:50:00
9:50 AM,71.6,30.2,22,29.83,50.0,SSW,13.8,21.9,N/A,,Partly Cloudy,200,2013-04-29 15:50:00
11:47 AM,75.2,24.8,15,29.81,50.0,West,13.8,20.7,N/A,,Scattered Clouds,280,2013-04-29 17:47:00
1:49 PM,77.0,24.8,14,29.76,50.0,WNW,16.1,27.6,N/A,,Scattered Clouds,300,2013-04-29 19:49:00
2:48 PM,80.6,24.8,13,29.73,50.0,SSW,6.9,15.0,N/A,,Mostly Cloudy,210,2013-04-29 20:48:00
3:48 PM,80.6,24.8,13,29.71,50.0,SW,10.4,18.4,N/A,,Mostly Cloudy,220,2013-04-29 21:48:00
4:50 PM,78.8,24.8,14,29.68,50.0,West,13.8,-,N/A,,Mostly Cloudy,270,2013-04-29 22:50:00
5:51 PM,75.2,30.2,19,29.68,50.0,West,5.8,-,N/A,,Mostly Cloudy,280,2013-04-29 23:51:00
6:55 PM,71.6,28.4,20,29.67,50.0,Calm,Calm,-,N/A,,Mostly Cloudy,0,2013-04-30 00:55:00
7:56 PM,62.6,41.0,45,29.68,50.0,SSE,4.6,-,N/A,,Mostly Cloudy,160,2013-04-30 01:56:00
8:35 PM,60.8,35.6,39,29.68,10.0,SSW,4.6,-,N/A,,Clear,210,2013-04-30 02:35:00
8:55 PM,69.8,26.6,20,29.68,10.0,WSW,3.5,-,N/A,,Clear,250,2013-04-30 02:55:00
9:35 PM,60.8,35.6,39,29.68,10.0,SSW,8.1,-,N/A,,Clear,200,2013-04-30 03:35:00
9:55 PM,59.0,35.6,42,29.68,10.0,South,8.1,-,N/A,,Clear,190,2013-04-30 03:55:00
10:15 PM,57.2,37.4,48,29.69,10.0,South,6.9,-,N/A,,Clear,180,2013-04-30 04:15:00
10:34 PM,55.4,39.2,54,29.69,10.0,South,8.1,-,N/A,,Clear,190,2013-04-30 04:34:00
10:55 PM,62.6,30.2,30,29.68,10.0,SSW,12.7,-,N/A,,Clear,200,2013-04-30 04:55:00
11:15 PM,64.4,28.4,26,29.68,10.0,SSW,11.5,-,N/A,,Clear,200,2013-04-30 05:15:00
11:35 PM,62.6,30.2,30,29.68,10.0,South,9.2,-,N/A,,Clear,190,2013-04-30 05:35:00
11:55 PM,59.0,32.0,36,29.68,10.0,South,9.2,-,N/A,,Clear,190,2013-04-30 05:55:00